This demonstration page uses our WeatherBlox Daily Observations layout. Learn more.

Left ArrowRight Arrow

Hourly Observations for November 10, 2022

Temp ( °F °C ) Dew Point ( °F °C ) Humidity (%) Winds ( mph kmh ) Pressure ( in mb ) Visibility ( mi km ) Precip ( " mm )
12:53 am 00:53 Partly Cloudy 65 18.3 61 16.1 87 87 SSE 12 19 29.77 1008 10 16 0.00 0.00
1:53 am 01:53 Clear 64 17.8 61 16.1 90 90 SSE 10 17 29.75 1008 10 16 0.00 0.00
2:53 am 02:53 Clear 62 16.7 60 15.6 93 93 S 6 9 29.75 1008 9 14 0.00 0.00
3:53 am 03:53 Clear 59 15 58 14.4 96 96 VRB 6 9 29.76 1008 7 11 0.00 0.00
4:53 am 04:53 Clear with Mist and Fog 57 13.9 57 13.9 100 100 S 9 15 29.76 1008 6 10 0.00 0.00
5:53 am 05:53 Clear 54 12.2 46 7.8 74 74 SSW 7 11 29.79 1009 10 16 0.00 0.00
6:53 am 06:53 Clear 53 11.7 42 5.6 66 66 SW 9 15 29.81 1009 10 16 0.00 0.00
7:53 am 07:53 Sunny 55 12.8 41 5 59 59 WSW 9 15 29.83 1010 10 16 0.00 0.00
8:53 am 08:53 Sunny 62 16.7 41 5 46 46 W 9 15 29.85 1011 10 16 0.00 0.00
9:53 am 09:53 Sunny 69 20.6 38 3.3 32 32 W 14 22 29.85 1011 10 16 0.00 0.00
10:53 am 10:53 Sunny 72 22.2 36 2.2 27 27 NNW 10 17 29.86 1011 10 16 0.00 0.00
11:53 am 11:53 Sunny 73 22.8 35 1.7 25 25 NW 8 13 29.84 1011 10 16 0.00 0.00
12:53 pm 12:53 Sunny 75 23.9 34 1.1 22 22 W 5 7 29.80 1009 10 16 0.00 0.00
1:53 pm 13:53 Sunny 76 24.4 32 0 20 20 W 9 15 29.76 1008 10 16 0.00 0.00
2:53 pm 14:53 Sunny 77 25 33 0.6 20 20 W 7 11 29.73 1007 10 16 0.00 0.00
3:53 pm 15:53 Sunny 78 25.6 34 1.1 20 20 VRB 7 11 29.72 1006 10 16 0.00 0.00
4:53 pm 16:53 Sunny 77 25 35 1.7 22 22 WSW 7 11 29.72 1007 10 16 0.00 0.00
5:53 pm 17:53 Sunny 71 21.7 34 1.1 25 25 WSW 6 9 29.73 1007 10 16 0.00 0.00
6:53 pm 18:53 Clear 68 20 35 1.7 30 30 SW 3 6 29.74 1007 10 16 0.00 0.00
7:53 pm 19:53 Clear 65 18.3 35 1.7 33 33 S 3 6 29.75 1008 10 16 0.00 0.00
8:53 pm 20:53 Clear 62 16.7 36 2.2 38 38 W 9 15 29.77 1008 10 16 0.00 0.00
9:53 pm 21:53 Clear 57 13.9 36 2.2 45 45 SW 7 11 29.78 1008 10 16 0.00 0.00
10:53 pm 22:53 Clear 57 13.9 35 1.7 43 43 NNE 5 7 29.77 1008 10 16 0.00 0.00
11:53 pm 23:53 Clear 53 11.7 35 1.7 50 50 NNE 6 9 29.78 1008 10 16 0.00 0.00

Powered by AerisWeather